EW7704 Weather Reports


Display with metric or nautical units.
time (UTC)temp
F
wind
direction
speed
MPH
gust
MPH
rain 1hr
in
rain 24hr
in
rain mn
in
humidity
%
barometer
mb
20260506141526 32 51 0.0 3.0 0.01 0.35 0.02 97 1022.7
20260506141026 32 78 1.0 3.0 0.01 0.35 0.02 97 1022.7
20260506140526 32 50 0.0 3.0 0.01 0.35 0.02 97 1022.6
20260506140038 32 225 1.0 4.0 0.01 0.35 0.02 97 1022.6
20260506135523 32 248 1.0 4.0 0.00 0.36 0.01 97 1022.6
20260506135024 32 275 0.0 3.0 0.00 0.36 0.01 97 1022.6
20260506134531 32 310 0.0 3.0 0.00 0.36 0.01 97 1022.5
20260506134027 32 245 0.0 3.0 0.00 0.36 0.01 97 1022.5
20260506133523 32 245 0.0 3.0 0.00 0.36 0.01 97 1022.5
20260506133024 32 296 0.0 3.0 0.00 0.36 0.01 97 1022.4
20260506132522 32 284 0.0 3.0 0.00 0.36 0.01 97 1022.3
20260506132021 32 309 0.0 3.0 0.00 0.36 0.01 97 1022.2
20260506131533 32 273 0.0 2.0 0.00 0.36 0.01 97 1022.1
20260506131019 31 340 0.0 2.0 0.00 0.36 0.01 97 1021.9
20260506130518 31 340 0.0 2.0 0.00 0.36 0.01 97 1021.8
20260506130021 31 340 0.0 1.0 0.00 0.36 0.01 97 1021.8
20260506125517 31 339 0.0 0.0 0.00 0.40 0.01 97 1021.6
20260506125016 31 298 0.0 0.0 0.00 0.40 0.01 97 1021.6
20260506124516 31 234 0.0 0.0 0.00 0.40 0.01 97 1021.5
20260506124015 32 262 0.0 0.0 0.00 0.40 0.01 97 1021.3
20260506123515 32 236 0.0 0.0 0.00 0.40 0.01 97 1021.4
20260506123019 32 227 0.0 0.0 0.00 0.40 0.01 97 1021.4
20260506122515 32 235 0.0 0.0 0.00 0.40 0.01 97 1021.4
20260506122015 32 231 0.0 0.0 0.00 0.40 0.01 97 1021.5
20260506121514 32 240 0.0 0.0 0.00 0.40 0.01 97 1021.3
20260506121013 32 223 0.0 0.0 0.00 0.40 0.01 97 1021.1
20260506120515 32 220 0.0 0.0 0.00 0.40 0.01 97 1021.1
20260506120022 32 231 0.0 0.0 0.00 0.40 0.01 97 1021.1
20260506115514 32 229 0.0 0.0 0.00 0.44 0.01 97 1021.1
20260506115012 32 230 0.0 0.0 0.00 0.44 0.01 97 1021.1
20260506114518 32 360 0.0 0.0 0.00 0.44 0.01 97 1021.0
20260506114014 32 360 0.0 0.0 0.00 0.44 0.01 97 1020.9
20260506113511 31 360 0.0 0.0 0.00 0.44 0.01 97 1020.8
20260506113010 32 360 0.0 0.0 0.00 0.44 0.01 97 1020.7
20260506112509 32 360 0.0 0.0 0.00 0.44 0.01 97 1020.7
20260506112009 31 360 0.0 0.0 0.00 0.44 0.01 97 1020.6
20260506111508 31 360 0.0 0.0 0.00 0.44 0.01 97 1020.4
20260506111013 31 360 0.0 0.0 0.00 0.44 0.01 97 1020.3
20260506110513 31 360 0.0 0.0 0.00 0.44 0.01 97 1020.3
20260506110007 31 360 0.0 0.0 0.00 0.44 0.01 97 1020.3
20260506105508 31 360 0.0 0.0 0.00 0.52 0.01 97 1020.1
20260506105008 31 360 0.0 0.0 0.00 0.52 0.01 97 1020.1
20260506104507 31 360 0.0 0.0 0.00 0.52 0.01 97 1020.0
20260506104007 31 360 0.0 0.0 0.00 0.52 0.01 97 1020.1
20260506103507 32 360 0.0 0.0 0.00 0.52 0.01 97 1020.3
20260506103007 31 360 0.0 0.0 0.00 0.52 0.01 97 1020.1
20260506102507 31 360 0.0 0.0 0.00 0.52 0.01 97 1020.3
20260506102007 31 360 0.0 0.0 0.00 0.52 0.01 97 1020.2
20260506101506 31 360 0.0 0.0 0.00 0.52 0.01 97 1019.9
20260506101006 31 360 0.0 0.0 0.00 0.52 0.01 97 1020.1
20260506100506 31 360 0.0 0.0 0.00 0.52 0.01 97 1020.3
20260506100015 32 360 0.0 0.0 0.00 0.52 0.01 97 1020.3
20260506095505 32 360 0.0 0.0 0.00 0.54 0.01 97 1020.3
20260506095007 31 360 0.0 0.0 0.00 0.54 0.01 97 1020.4
20260506094506 31 360 0.0 0.0 0.00 0.54 0.01 97 1020.4
20260506094005 31 360 0.0 0.0 0.00 0.54 0.01 97 1020.2
20260506093503 31 360 0.0 0.0 0.00 0.54 0.01 97 1020.1
20260506093004 31 360 0.0 0.0 0.00 0.54 0.01 97 1019.9
20260506092503 31 360 0.0 0.0 0.00 0.54 0.01 97 1019.8
20260506092003 31 360 0.0 0.0 0.00 0.54 0.01 97 1019.9
20260506091503 31 360 0.0 0.0 0.00 0.54 0.01 97 1019.9
20260506091002 31 360 0.0 0.0 0.00 0.54 0.01 97 1019.9
20260506090501 31 360 0.0 0.0 0.00 0.54 0.01 97 1019.9
20260506090001 31 360 0.0 0.0 0.00 0.56 0.01 97 1019.9
20260506085503 31 360 0.0 0.0 0.00 0.56 0.01 97 1019.8
20260506085001 31 360 0.0 0.0 0.00 0.56 0.01 97 1019.8
20260506084501 31 360 0.0 0.0 0.00 0.56 0.01 97 1019.8
20260506084002 31 360 0.0 0.0 0.00 0.56 0.01 97 1019.8
20260506083502 31 290 0.0 1.0 0.00 0.56 0.01 97 1019.8
20260506083000 32 284 0.0 1.0 0.01 0.56 0.01 97 1019.8
20260506082503 32 290 0.0 1.0 0.01 0.56 0.01 97 1019.9
20260506082100 32 296 0.0 1.0 0.01 0.56 0.01 97 1019.8
20260506081612 32 31 0.0 2.0 0.01 0.56 0.01 97 1019.6
20260506081504 32 31 0.0 2.0 0.01 0.56 0.01 97 1019.5
20260506081100 32 36 0.0 2.0 0.01 0.56 0.01 97 1019.5
20260506080600 31 31 0.0 2.0 0.01 0.56 0.01 97 1019.6
20260506073056 32 296 1.0 4.0 0.00 0.57 0.00 97 1019.3
20260506072554 32 21 1.0 4.0 0.00 0.57 0.00 97 1019.4
20260506072053 32 35 1.0 3.0 0.00 0.57 0.00 97 1019.4
20260506071553 32 17 1.0 3.0 0.00 0.57 0.00 97 1019.3
20260506071056 32 26 1.0 3.0 0.00 0.57 0.00 97 1019.4
20260506070552 32 14 1.0 3.0 0.00 0.57 0.00 97 1019.3
20260506062045 32 265 0.0 1.0 0.01 0.57 0.00 97 1018.9
20260506061548 32 172 0.0 0.0 0.01 0.57 0.00 97 1019.0
20260506061044 32 165 0.0 0.0 0.01 0.57 0.00 97 1018.9
20260506060543 32 166 0.0 0.0 0.01 0.57 0.00 97 1018.9
20260506051036 32 211 0.0 0.0 0.00 0.56 0.56 97 1018.1
20260506050536 32 217 0.0 0.0 0.00 0.56 0.56 97 1018.0
20260506045036 32 206 0.0 0.0 0.00 0.56 0.56 96 1018.0
20260506044546 32 205 0.0 0.0 0.00 0.56 0.56 96 1018.0
20260506044036 32 208 0.0 0.0 0.00 0.56 0.56 96 1018.0
20260506043536 32 213 0.0 0.0 0.00 0.56 0.56 96 1018.1
20260506043034 32 211 0.0 0.0 0.00 0.56 0.56 96 1018.0
20260506042533 32 206 0.0 0.0 0.00 0.56 0.56 96 1017.9
20260506042032 32 203 0.0 0.0 0.00 0.56 0.56 96 1017.8
20260506041536 32 179 0.0 0.0 0.00 0.56 0.56 96 1017.6
20260506041031 32 186 0.0 0.0 0.00 0.56 0.56 96 1017.5
20260506040533 32 186 0.0 0.0 0.00 0.56 0.56 96 1017.5
20260506040032 32 184 0.0 1.0 0.00 0.56 0.56 97 1017.6
20260506035531 32 186 0.0 1.0 0.00 0.61 0.56 97 1017.5
20260506035030 32 184 0.0 0.0 0.00 0.61 0.56 96 1017.5
20260506034530 32 189 0.0 0.0 0.00 0.61 0.56 96 1017.5
20260506034028 32 186 0.0 0.0 0.00 0.61 0.56 96 1017.4
20260506033527 32 185 0.0 0.0 0.00 0.61 0.56 96 1017.3
20260506033030 32 180 0.0 1.0 0.00 0.61 0.56 96 1017.1
20260506032527 32 180 0.0 1.0 0.00 0.61 0.56 96 1017.2
20260506032027 32 182 0.0 1.0 0.00 0.61 0.56 96 1017.1
20260506031541 32 182 0.0 1.0 0.00 0.61 0.56 96 1017.2
20260506031025 32 184 0.0 1.0 0.00 0.61 0.56 96 1017.0
20260506030528 32 178 0.0 1.0 0.00 0.61 0.56 96 1016.9
20260506030029 32 188 0.0 1.0 0.00 0.61 0.56 96 1016.8
20260506025522 32 184 0.0 2.0 0.00 0.63 0.56 96 1016.6
20260506025024 32 182 0.0 2.0 0.00 0.63 0.56 96 1016.5
20260506024527 32 177 0.0 1.0 0.00 0.63 0.56 96 1016.3
20260506024020 32 177 0.0 1.0 0.00 0.63 0.56 96 1016.2
20260506023519 32 167 0.0 1.0 0.00 0.63 0.56 96 1016.1
20260506023018 32 178 0.0 1.0 0.01 0.63 0.56 96 1015.9
20260506022517 32 179 0.0 1.0 0.01 0.63 0.56 96 1015.7
20260506022017 32 187 0.0 1.0 0.01 0.63 0.56 96 1015.7
20260506021516 32 187 0.0 1.0 0.01 0.63 0.56 96 1015.5
20260506021016 32 188 0.0 2.0 0.01 0.63 0.56 96 1015.3
20260506020518 32 178 0.0 2.0 0.01 0.63 0.56 96 1015.4
20260506020017 32 192 0.0 1.0 0.01 0.63 0.56 96 1015.2
20260506015513 32 171 0.0 1.0 0.01 0.63 0.56 96 1015.2
20260506015013 32 171 0.0 1.0 0.01 0.63 0.56 96 1015.0
20260506014512 32 175 0.0 1.0 0.01 0.63 0.56 96 1015.0
20260506014012 32 175 0.0 2.0 0.01 0.63 0.56 96 1015.0
20260506013511 32 163 0.0 2.0 0.02 0.63 0.56 96 1014.9
20260506013013 32 165 0.0 2.0 0.01 0.62 0.56 96 1014.8
20260506012510 32 167 0.0 2.0 0.01 0.62 0.56 96 1014.7
20260506012010 32 171 0.0 3.0 0.01 0.62 0.56 96 1014.5
20260506011515 32 174 0.0 3.0 0.01 0.62 0.56 96 1014.5
20260506011009 32 175 0.0 1.0 0.01 0.62 0.56 96 1014.3
20260506010511 32 170 0.0 1.0 0.02 0.62 0.56 96 1014.2
20260506010015 32 165 0.0 1.0 0.02 0.62 0.56 96 1014.2
20260506005506 33 166 0.0 1.0 0.02 0.62 0.56 96 1014.1
20260506005006 33 360 0.0 2.0 0.02 0.62 0.56 96 1014.2
20260506004506 32 360 0.0 2.0 0.02 0.62 0.56 96 1014.2
20260506004005 33 171 0.0 3.0 0.01 0.61 0.55 96 1014.1
20260506003504 33 211 0.0 3.0 0.01 0.61 0.55 96 1014.1
20260506003005 33 145 0.0 2.0 0.01 0.61 0.55 96 1013.9
20260506002503 33 133 0.0 2.0 0.01 0.61 0.55 96 1014.0
20260506002004 33 360 0.0 3.0 0.01 0.61 0.55 96 1014.0
20260506001502 33 174 0.0 2.0 0.01 0.61 0.55 96 1013.9
20260506001103 33 360 0.0 2.0 0.01 0.61 0.55 96 1013.9
20260506000601 33 227 0.0 2.0 0.00 0.60 0.54 96 1013.7
20260506000059 33 244 0.0 2.0 0.00 0.60 0.54 96 1013.5
20260505235559 33 360 0.0 2.0 0.00 0.60 0.54 95 1013.5
20260505235058 33 19 0.0 2.0 0.00 0.60 0.54 95 1013.3
20260505234558 33 57 0.0 3.0 0.00 0.60 0.54 95 1013.1
20260505234100 33 360 0.0 3.0 0.01 0.60 0.54 95 1013.0
20260505233557 32 28 0.0 3.0 0.01 0.60 0.54 95 1012.9
20260505233109 32 325 1.0 3.0 0.02 0.60 0.54 95 1012.7
20260505232557 32 215 0.0 4.0 0.02 0.60 0.54 95 1013.2
20260505232056 32 211 1.0 4.0 0.03 0.60 0.54 95 1013.1
20260505231555 32 234 1.0 3.0 0.03 0.60 0.54 95 1013.0
20260505231054 32 246 0.0 3.0 0.04 0.60 0.54 95 1012.9
20260505230553 33 126 0.0 4.0 0.04 0.60 0.54 95 1012.8
20260505230056 33 237 1.0 7.0 0.05 0.60 0.54 95 1012.9
20260505225550 33 229 2.0 7.0 0.05 0.60 0.54 94 1012.9
20260505225050 34 242 2.0 5.0 0.05 0.60 0.54 94 1012.7
20260505224549 34 247 1.0 4.0 0.04 0.59 0.53 95 1012.5
20260505224049 34 168 1.0 4.0 0.04 0.59 0.53 94 1012.3
20260505223547 34 219 1.0 4.0 0.04 0.59 0.53 94 1012.1
20260505223047 34 101 1.0 4.0 0.03 0.57 0.52 94 1012.0
20260505222546 34 175 0.0 8.0 0.03 0.57 0.52 94 1012.1
20260505222046 35 242 3.0 8.0 0.03 0.56 0.51 94 1012.2
20260505221545 36 202 2.0 4.0 0.03 0.56 0.51 94 1012.1
20260505221044 36 300 1.0 5.0 0.02 0.56 0.50 94 1011.8
20260505220543 36 221 2.0 6.0 0.02 0.56 0.50 94 1011.7
20260505220044 36 31 1.0 6.0 0.01 0.55 0.49 94 1011.5
20260505215543 36 90 2.0 6.0 0.02 0.55 0.49 94 1011.6
20260505215042 37 360 2.0 6.0 0.02 0.55 0.49 94 1011.4
20260505214544 37 334 1.0 6.0 0.03 0.55 0.49 94 1011.3
20260505214042 37 9 1.0 6.0 0.03 0.55 0.49 95 1011.2
20260505213542 37 304 1.0 6.0 0.04 0.55 0.49 94 1011.2
20260505213042 37 9 3.0 6.0 0.05 0.55 0.49 95 1011.2
20260505212541 37 36 3.0 6.0 0.06 0.55 0.49 95 1011.3
20260505212041 36 14 1.0 6.0 0.06 0.54 0.48 95 1011.5
20260505211541 36 36 1.0 5.0 0.07 0.54 0.48 94 1011.4
20260505211041 36 25 2.0 5.0 0.08 0.54 0.48 94 1011.4
20260505210540 36 334 1.0 5.0 0.09 0.54 0.48 95 1011.4
20260505210039 35 9 2.0 9.0 0.10 0.54 0.48 94 1011.4
20260505205540 35 23 3.0 9.0 0.10 0.53 0.47 94 1011.4
20260505205038 35 17 3.0 8.0 0.10 0.53 0.47 94 1011.4
20260505204538 34 17 3.0 8.0 0.09 0.52 0.46 94 1011.4
20260505204038 34 15 2.0 5.0 0.10 0.52 0.46 93 1011.5
20260505203536 34 57 2.0 5.0 0.09 0.51 0.45 92 1011.7
20260505203038 35 9 1.0 8.0 0.08 0.50 0.44 92 1011.7
20260505202535 35 296 3.0 8.0 0.07 0.49 0.43 91 1011.5
20260505202038 37 14 2.0 10.0 0.06 0.47 0.41 90 1011.9
20260505201547 39 173 2.0 10.0 0.06 0.47 0.41 91 1012.0
20260505201033 38 13 2.0 5.0 0.05 0.45 0.39 91 1011.8
20260505200532 38 23 1.0 7.0 0.05 0.45 0.39 91 1011.7
20260505200033 39 53 3.0 7.0 0.04 0.44 0.38 91 1011.4
20260505195531 39 360 2.0 6.0 0.03 0.43 0.37 91 1011.4
20260505195031 39 54 2.0 4.0 0.03 0.43 0.37 91 1011.5
20260505194532 39 28 1.0 4.0 0.03 0.43 0.37 91 1011.6
20260505194032 39 15 1.0 3.0 0.02 0.42 0.36 91 1011.5
20260505193531 40 12 0.0 3.0 0.02 0.42 0.36 92 1011.6
20260505193030 40 346 0.0 2.0 0.02 0.42 0.36 92 1011.5
20260505192534 40 290 0.0 4.0 0.01 0.41 0.35 92 1011.3
20260505192031 40 17 2.0 4.0 0.02 0.41 0.35 92 1011.1
20260505191533 40 238 0.0 2.0 0.02 0.41 0.35 92 1011.1
20260505191031 39 20 0.0 5.0 0.01 0.40 0.34 92 1011.0
20260505190529 39 40 1.0 5.0 0.02 0.40 0.34 91 1010.9
20260505190036 38 49 2.0 4.0 0.02 0.40 0.34 91 1010.9
20260505185630 39 325 1.0 5.0 0.02 0.40 0.34 92 1010.9
20260505185029 38 28 2.0 5.0 0.02 0.40 0.34 92 1011.0
20260505184529 38 53 2.0 5.0 0.02 0.40 0.34 91 1011.1
20260505184030 38 49 3.0 5.0 0.03 0.40 0.34 91 1011.2
20260505183529 38 22 2.0 4.0 0.03 0.40 0.34 92 1011.4
20260505183041 38 48 1.0 4.0 0.03 0.40 0.34 92 1011.4
20260505182529 38 46 2.0 4.0 0.03 0.40 0.34 92 1011.3
20260505182029 38 64 0.0 4.0 0.03 0.39 0.33 92 1011.3
20260505181533 38 52 1.0 4.0 0.03 0.39 0.33 93 1011.4
20260505181029 38 51 2.0 4.0 0.03 0.39 0.33 93 1011.4
20260505180527 38 28 0.0 3.0 0.02 0.38 0.32 93 1011.4
20260505180027 38 28 1.0 3.0 0.02 0.38 0.32 94 1011.2
20260505175528 38 24 0.0 3.0 0.02 0.38 0.32 95 1011.3
20260505175028 37 21 1.0 3.0 0.02 0.38 0.32 94 1011.2
20260505174527 37 22 0.0 3.0 0.02 0.37 0.31 94 1011.3
20260505174028 38 22 0.0 4.0 0.02 0.37 0.31 95 1011.3
20260505173527 38 22 1.0 4.0 0.02 0.37 0.31 95 1011.4
20260505173037 38 242 0.0 4.0 0.02 0.37 0.31 95 1011.5
20260505172526 38 232 1.0 4.0 0.01 0.36 0.30 95 1011.7
20260505172027 38 239 1.0 4.0 0.01 0.36 0.30 95 1011.8
20260505171626 38 221 1.0 4.0 0.01 0.36 0.30 95 1011.8
20260505171026 38 196 0.0 3.0 0.01 0.36 0.30 95 1011.7
20260505170525 37 227 1.0 3.0 0.02 0.36 0.30 95 1011.5
20260505170026 37 225 0.0 3.0 0.02 0.36 0.30 95 1011.5
20260505165527 37 233 1.0 3.0 0.02 0.36 0.30 96 1011.4
20260505165024 37 234 0.0 3.0 0.02 0.36 0.30 96 1011.4
20260505164524 37 200 0.0 2.0 0.01 0.35 0.28 95 1011.4
20260505164024 36 208 0.0 4.0 0.01 0.35 0.28 95 1011.4
20260505163524 36 205 1.0 3.0 0.01 0.35 0.28 95 1011.3
20260505163023 37 300 0.0 3.0 0.01 0.35 0.28 96 1011.3
20260505162524 36 198 0.0 3.0 0.01 0.35 0.28 95 1011.4
20260505162024 36 202 0.0 3.0 0.01 0.35 0.28 95 1011.3
20260505161524 36 218 0.0 3.0 0.01 0.35 0.28 95 1011.3
20260505161023 36 198 1.0 3.0 0.01 0.35 0.28 95 1011.4
20260505160525 36 211 0.0 3.0 0.00 0.34 0.28 95 1011.4
20260505153022 36 236 0.0 3.0 0.01 0.34 0.28 95 1011.4
20260505152521 36 214 0.0 3.0 0.02 0.34 0.28 95 1011.5
20260505152021 36 206 0.0 1.0 0.02 0.34 0.28 96 1011.5
20260505151530 36 214 0.0 3.0 0.02 0.34 0.28 95 1011.6
20260505151021 35 208 1.0 3.0 0.03 0.34 0.28 95 1011.5
20260505150520 35 9 1.0 3.0 0.03 0.34 0.28 95 1011.3